STARLINK-4778 (53836 NORAD) Tracking and Keplerian Element Data

This shows tracking and keplerian element data for the satellite.

Feedback or suggestion? Click here.




ElementValue
Catalog53836
NameSTARLINK-4778
Epoch Orbit130
Epoch Day324.91667824
Epoch Year2022
RAAN307.6938
Inclination53.2175
Eccentricity0.0001276
Argument of Perigee67.8947
Mean Anonmoly120.7293
Mean Motion15.67094231
Decay Rate-0.01138285
L11 53836U 22114U 22324.91667824 -.01138285 00000+0 -11544-1 0 9996
L22 53836 53.2175 307.6938 0001276 67.8947 120.7293 15.67094231 1309



Live tracking and technical data element details for STARLINK-4778 (NORAD 53836). STARLINK-4778 can be tracked NOW for your location showing map with azimuth and elevation plus other details from your city location.







IsCatalogInMostPopularTable: catalog: 53836, numindb: -1

Insert: records affected: 1


GetName: 53836 STARLINK-4778

Hit Count: inserted at: Thu, 08 Dec 2022 10:30:24 GMT